Location: Barrio Las Umbrías
(40.4173°N, 4.8685°W)
Time: 12:51:45
(UTC+00:00)

Cosmos 2100 Rocket - Pass Details

Date: 17 August 2022
Orbit: 955 x 1001 km, 82.9° (Epoch: 27 September)

Event Time Altitude Azimuth Distance (km) Brightness Sun altitude
Rises 20:03:06 0° 358° (N) 3,661 7.4 -9.4°
Reaches altitude 10° 20:05:44 10° 5° (N) 2,705 6.6 -9.9°
Maximum altitude 20:11:40 46° 78° (ENE) 1,257 4.3 -10.9°
Drops below altitude 10° 20:17:31 10° 151° (SSE) 2,676 5.8 -11.9°
Enters shadow 20:17:33 10° 151° (SSE) 2,690 5.8 -11.9°
